This is the latest recevied weather packets stored in our database for station/object W4CKA. If no packets are shown the sender has not sent any weather packets the latest 10 day(s).
| Time | Temp. | Humidity | Pressure | Rain* | Wind** | Luminosity | Snow |
|---|---|---|---|---|---|---|---|
| 1777973359 | 7.22° C | 98% | 1056.6 hPa | 0 mm | - | 0 W/m² | - |
| 1777972754 | 7.22° C | 98% | 1056.5 hPa | 0 mm | - | 0 W/m² | - |
| 1777972149 | 7.78° C | 98% | 1056.5 hPa | 0 mm | - | 0 W/m² | - |
| 1777971544 | 7.78° C | 98% | 1056.4 hPa | 0 mm | - | 0 W/m² | - |
| 1777970940 | 7.78° C | 97% | 1056.5 hPa | 0 mm | - | 0 W/m² | - |
| 1777970336 | 7.78° C | 97% | 1056.3 hPa | 0 mm | - | 0 W/m² | - |
| 1777969735 | 7.78° C | 96% | 1056.3 hPa | 0 mm | - | 0 W/m² | - |
| 1777969134 | 8.33° C | 96% | 1056 hPa | 0 mm | - | 0 W/m² | - |
| 1777968533 | 8.33° C | 95% | 1056 hPa | 0 mm | - | 0 W/m² | - |
| 1777967931 | 8.89° C | 95% | 1055.9 hPa | 0 mm | - | 0 W/m² | - |
| 1777967325 | 8.33° C | 94% | 1055.7 hPa | 0 mm | - | 0 W/m² | - |
| 1777966725 | 8.89° C | 93% | 1055.9 hPa | 0 mm | - | 0 W/m² | - |
| 1777966126 | 8.89° C | 92% | 1055.9 hPa | 0 mm | - | 0 W/m² | - |
| 1777965524 | 10° C | 92% | 1055.5 hPa | 0 mm | - | 0 W/m² | - |
| 1777964919 | 10° C | 92% | 1055.9 hPa | 0 mm | - | 0 W/m² | - |
| 1777964316 | 10° C | 92% | 1055.8 hPa | 0 mm | - | 0 W/m² | - |
| 1777963716 | 9.44° C | 95% | 1055.8 hPa | 0 mm | - | 0 W/m² | - |
| 1777963111 | 8.89° C | 95% | 1055.5 hPa | 0 mm | - | 0 W/m² | - |
| 1777962510 | 9.44° C | 96% | 1055.7 hPa | 0 mm | - | 0 W/m² | - |
| 1777961909 | 8.89° C | 95% | 1055.4 hPa | 0 mm | - | 0 W/m² | - |
| 1777961305 | 10° C | 96% | 1055.2 hPa | 0 mm | - | 0 W/m² | - |
| 1777960703 | 9.44° C | 95% | 1055.4 hPa | 0 mm | - | 0 W/m² | - |
| 1777960103 | 9.44° C | 94% | 1055.4 hPa | 0 mm | - | 0 W/m² | - |
| 1777959498 | 9.44° C | 93% | 1055.3 hPa | 0 mm | - | 0 W/m² | - |
| 1777958897 | 10° C | 95% | 1055.1 hPa | 0 mm | - | 0 W/m² | - |
* Rain latest hour (hover to see other rain measurements)
** Current wind speed in m/s (hover to see current wind gust speed)